Finest — WCW8374 — position and weather

sailwx.info

Track history (hours):
 
Tides and Currents Weather Stations Pressure Air Temp Water Temp Dewpoint Dewpoint Depression Visibility Wind Speed Wind Dir Waves Ship Positions

Finest

Owner: NEW YORK FAST FERRY SERVICES INC, MAMARONECK, NY. More information available from US FCC via Universal Licensing System and Coast Guard Vessel Documentation Center.

Last reported at 2014-Nov-21 23:33 UTC. Time now 2014-Nov-22 01:32 UTC.
Position N 40°36' W 074°03'.

Length 38 m.

Type: High speed craft. MMSI: 366990590.

Date/timePositionNaut miles runAvg speedWind from/ knotsBaromVisibWave heightAir tempDewpointWater temp
2014-Nov-21 23:33N 40°36' W 074°03'6 2.8
2014-Nov-21 21:34N 40°41' W 074°01'5 4.9
2014-Nov-21 20:33N 40°46' W 074°01'0 0.0
2014-Nov-21 19:33N 40°46' W 074°01'0 0.0
2014-Nov-21 18:33N 40°46' W 074°01'0 0.0
2014-Nov-21 17:33N 40°46' W 074°01'0 0.0
2014-Nov-21 16:33N 40°46' W 074°01'0 0.0
2014-Nov-21 15:33N 40°46' W 074°01'0 0.0
2014-Nov-21 14:33N 40°46' W 074°01'9 9.1
2014-Nov-21 13:33N 40°37' W 074°03'1 0.7
2014-Nov-21 12:33N 40°38' W 074°03'2 0.1
2014-Nov-20 23:33N 40°36' W 074°03'5 2.7
2014-Nov-20 21:34N 40°42' W 074°01'5 4.2
2014-Nov-20 20:29N 40°46' W 074°01'0 0.0
2014-Nov-20 19:29N 40°46' W 074°01'0 0.0
2014-Nov-20 18:30N 40°46' W 074°01'0 0.0
2014-Nov-20 17:29N 40°46' W 074°01'0 0.0
2014-Nov-20 16:23N 40°46' W 074°01'4 4.3
2014-Nov-20 15:33N 40°43' W 074°02'8 6.1
2014-Nov-20 14:14N 40°35' W 074°04'4 5.4
2014-Nov-20 13:34N 40°38' W 074°03'2 1.6
2014-Nov-20 12:33N 40°37' W 074°03'0 0.0
2014-Nov-19 23:34N 40°37' W 074°03'6 5.8
2014-Nov-19 22:31N 40°31' W 074°04'1111.4
2014-Nov-19 21:34N 40°42' W 074°01'5 4.7
2014-Nov-19 20:34N 40°46' W 074°01'0 0.0
2014-Nov-19 19:33N 40°46' W 074°01'0 0.0
2014-Nov-19 18:33N 40°46' W 074°01'0 0.0
2014-Nov-19 17:33N 40°46' W 074°01'0 0.0
2014-Nov-19 16:33N 40°46' W 074°01'0 0.0
2014-Nov-19 15:33N 40°46' W 074°01'0 0.0
2014-Nov-19 14:33N 40°46' W 074°01'9 9.1
2014-Nov-19 13:33N 40°37' W 074°03'0 0.3
2014-Nov-19 12:33N 40°37' W 074°03'2 0.1
2014-Nov-18 23:33N 40°36' W 074°03'6 3.1
2014-Nov-18 21:33N 40°42' W 074°01'5 4.0
2014-Nov-18 20:24N 40°46' W 074°01'0 0.0
2014-Nov-18 19:19N 40°46' W 074°01'0 0.0
2014-Nov-18 18:33N 40°46' W 074°01'0 0.0
2014-Nov-18 17:31N 40°46' W 074°01'0 0.0
2014-Nov-18 16:30N 40°46' W 074°01'0 0.0
2014-Nov-18 15:33N 40°46' W 074°01'0 0.0
2014-Nov-18 14:33N 40°46' W 074°01'10 9.9
2014-Nov-18 13:34N 40°37' W 074°03'1 1.4
2014-Nov-18 12:34N 40°38' W 074°03'1 0.1
2014-Nov-17 23:34N 40°37' W 074°03'5 5.0
2014-Nov-17 22:31N 40°32' W 074°04'1010.4
2014-Nov-17 21:34N 40°41' W 074°01'5 5.1
2014-Nov-17 20:34N 40°46' W 074°01'0 0.0
2014-Nov-17 19:34N 40°46' W 074°01'0 0.0
2014-Nov-17 18:34N 40°46' W 074°01'0 0.0
2014-Nov-17 17:34N 40°46' W 074°01'0 0.0
2014-Nov-17 16:34N 40°46' W 074°01'0 0.0
2014-Nov-17 15:33N 40°46' W 074°01'0 0.0
2014-Nov-17 14:34N 40°46' W 074°01'8 8.4
2014-Nov-17 13:34N 40°38' W 074°03'0 0.1
2014-Nov-17 12:32N 40°38' W 074°03'  
2014-Nov-14 23:31N 40°36' W 074°03'10 7.6
2014-Nov-14 22:14N 40°26' W 074°05'1623.1
2014-Nov-14 21:33N 40°42' W 074°01'5 4.7
2014-Nov-14 20:33N 40°46' W 074°01'0 0.0
2014-Nov-14 19:33N 40°46' W 074°01'0 0.0
2014-Nov-14 18:33N 40°46' W 074°01'0 0.0
2014-Nov-14 17:33N 40°46' W 074°01'0 0.0
2014-Nov-14 16:33N 40°46' W 074°01'0 0.0
2014-Nov-14 15:33N 40°46' W 074°01'0 0.0
2014-Nov-14 14:33N 40°46' W 074°01'9 4.6
2014-Nov-14 12:33N 40°37' W 074°03'0 0.0
2014-Nov-13 23:33N 40°37' W 074°03'5 2.5
2014-Nov-13 21:34N 40°42' W 074°01'5 4.5
2014-Nov-13 20:33N 40°46' W 074°01'0 0.0
2014-Nov-13 19:33N 40°46' W 074°01'0 0.0
2014-Nov-13 18:33N 40°46' W 074°01'0 0.0
2014-Nov-13 17:33N 40°46' W 074°01'0 0.0
2014-Nov-13 16:33N 40°46' W 074°01'1 0.7
2014-Nov-13 15:34N 40°46' W 074°00'12 8.0
2014-Nov-13 14:04N 40°34' W 074°02'1121.2
2014-Nov-13 13:34N 40°44' W 074°01'1918.4
2014-Nov-13 12:33N 40°26' W 074°05'1717.3
2014-Nov-13 11:34N 40°43' W 074°01'1716.6
2014-Nov-13 10:32N 40°26' W 074°05'11 1.0
2014-Nov-12 23:33N 40°37' W 074°03'6 6.0
2014-Nov-12 22:33N 40°31' W 074°04'1111.2
2014-Nov-12 21:34N 40°42' W 074°00'4 4.2
2014-Nov-12 20:32N 40°46' W 074°01'0 0.0
2014-Nov-12 19:33N 40°46' W 074°01'0 0.0
2014-Nov-12 18:33N 40°46' W 074°01'0 0.0
2014-Nov-12 17:33N 40°46' W 074°01'0 0.0
2014-Nov-12 16:33N 40°46' W 074°01'0 0.0
2014-Nov-12 15:33N 40°46' W 074°01'0 0.0
2014-Nov-12 14:33N 40°46' W 074°01'9 9.2
2014-Nov-12 13:33N 40°37' W 074°03'1 0.8
2014-Nov-12 12:34N 40°38' W 074°03'1212.1
2014-Nov-12 11:33N 40°26' W 074°05'0 0.1
2014-Nov-12 10:32N 40°26' W 074°05'10 0.9
2014-Nov-11 23:33N 40°36' W 074°03'  
Track history (hours):
 
Tides and Currents Weather Stations Pressure Air Temp Water Temp Dewpoint Dewpoint Depression Visibility Wind Speed Wind Dir Waves Ship Positions

Finest

Owner: NEW YORK FAST FERRY SERVICES INC, MAMARONECK, NY. More information available from US FCC via Universal Licensing System and Coast Guard Vessel Documentation Center.

Last reported at 2014-Nov-21 23:33 UTC. Time now 2014-Nov-22 01:32 UTC.
Position N 40°36' W 074°03'.

Length 38 m.

Type: High speed craft. MMSI: 366990590.

Date/timePositionNaut miles runAvg speedWind from/ knotsBaromVisibWave heightAir tempDewpointWater temp
2014-Nov-21 23:33N 40°36' W 074°03'6 2.8
2014-Nov-21 21:34N 40°41' W 074°01'5 4.9
2014-Nov-21 20:33N 40°46' W 074°01'0 0.0
2014-Nov-21 19:33N 40°46' W 074°01'0 0.0
2014-Nov-21 18:33N 40°46' W 074°01'0 0.0
2014-Nov-21 17:33N 40°46' W 074°01'0 0.0
2014-Nov-21 16:33N 40°46' W 074°01'0 0.0
2014-Nov-21 15:33N 40°46' W 074°01'0 0.0
2014-Nov-21 14:33N 40°46' W 074°01'9 9.1
2014-Nov-21 13:33N 40°37' W 074°03'1 0.7
2014-Nov-21 12:33N 40°38' W 074°03'2 0.1
2014-Nov-20 23:33N 40°36' W 074°03'5 2.7
2014-Nov-20 21:34N 40°42' W 074°01'5 4.2
2014-Nov-20 20:29N 40°46' W 074°01'0 0.0
2014-Nov-20 19:29N 40°46' W 074°01'0 0.0
2014-Nov-20 18:30N 40°46' W 074°01'0 0.0
2014-Nov-20 17:29N 40°46' W 074°01'0 0.0
2014-Nov-20 16:23N 40°46' W 074°01'4 4.3
2014-Nov-20 15:33N 40°43' W 074°02'8 6.1
2014-Nov-20 14:14N 40°35' W 074°04'4 5.4
2014-Nov-20 13:34N 40°38' W 074°03'2 1.6
2014-Nov-20 12:33N 40°37' W 074°03'0 0.0
2014-Nov-19 23:34N 40°37' W 074°03'6 5.8
2014-Nov-19 22:31N 40°31' W 074°04'1111.4
2014-Nov-19 21:34N 40°42' W 074°01'5 4.7
2014-Nov-19 20:34N 40°46' W 074°01'0 0.0
2014-Nov-19 19:33N 40°46' W 074°01'0 0.0
2014-Nov-19 18:33N 40°46' W 074°01'0 0.0
2014-Nov-19 17:33N 40°46' W 074°01'0 0.0
2014-Nov-19 16:33N 40°46' W 074°01'0 0.0
2014-Nov-19 15:33N 40°46' W 074°01'0 0.0
2014-Nov-19 14:33N 40°46' W 074°01'9 9.1
2014-Nov-19 13:33N 40°37' W 074°03'0 0.3
2014-Nov-19 12:33N 40°37' W 074°03'2 0.1
2014-Nov-18 23:33N 40°36' W 074°03'6 3.1
2014-Nov-18 21:33N 40°42' W 074°01'5 4.0
2014-Nov-18 20:24N 40°46' W 074°01'0 0.0
2014-Nov-18 19:19N 40°46' W 074°01'0 0.0
2014-Nov-18 18:33N 40°46' W 074°01'0 0.0
2014-Nov-18 17:31N 40°46' W 074°01'0 0.0
2014-Nov-18 16:30N 40°46' W 074°01'0 0.0
2014-Nov-18 15:33N 40°46' W 074°01'0 0.0
2014-Nov-18 14:33N 40°46' W 074°01'10 9.9
2014-Nov-18 13:34N 40°37' W 074°03'1 1.4
2014-Nov-18 12:34N 40°38' W 074°03'1 0.1
2014-Nov-17 23:34N 40°37' W 074°03'5 5.0
2014-Nov-17 22:31N 40°32' W 074°04'1010.4
2014-Nov-17 21:34N 40°41' W 074°01'5 5.1
2014-Nov-17 20:34N 40°46' W 074°01'0 0.0
2014-Nov-17 19:34N 40°46' W 074°01'0 0.0
2014-Nov-17 18:34N 40°46' W 074°01'0 0.0
2014-Nov-17 17:34N 40°46' W 074°01'0 0.0
2014-Nov-17 16:34N 40°46' W 074°01'0 0.0
2014-Nov-17 15:33N 40°46' W 074°01'0 0.0
2014-Nov-17 14:34N 40°46' W 074°01'8 8.4
2014-Nov-17 13:34N 40°38' W 074°03'0 0.1
2014-Nov-17 12:32N 40°38' W 074°03'  
2014-Nov-14 23:31N 40°36' W 074°03'10 7.6
2014-Nov-14 22:14N 40°26' W 074°05'1623.1
2014-Nov-14 21:33N 40°42' W 074°01'5 4.7
2014-Nov-14 20:33N 40°46' W 074°01'0 0.0
2014-Nov-14 19:33N 40°46' W 074°01'0 0.0
2014-Nov-14 18:33N 40°46' W 074°01'0 0.0
2014-Nov-14 17:33N 40°46' W 074°01'0 0.0
2014-Nov-14 16:33N 40°46' W 074°01'0 0.0
2014-Nov-14 15:33N 40°46' W 074°01'0 0.0
2014-Nov-14 14:33N 40°46' W 074°01'9 4.6
2014-Nov-14 12:33N 40°37' W 074°03'0 0.0
2014-Nov-13 23:33N 40°37' W 074°03'5 2.5
2014-Nov-13 21:34N 40°42' W 074°01'5 4.5
2014-Nov-13 20:33N 40°46' W 074°01'0 0.0
2014-Nov-13 19:33N 40°46' W 074°01'0 0.0
2014-Nov-13 18:33N 40°46' W 074°01'0 0.0
2014-Nov-13 17:33N 40°46' W 074°01'0 0.0
2014-Nov-13 16:33N 40°46' W 074°01'1 0.7
2014-Nov-13 15:34N 40°46' W 074°00'12 8.0
2014-Nov-13 14:04N 40°34' W 074°02'1121.2
2014-Nov-13 13:34N 40°44' W 074°01'1918.4
2014-Nov-13 12:33N 40°26' W 074°05'1717.3
2014-Nov-13 11:34N 40°43' W 074°01'1716.6
2014-Nov-13 10:32N 40°26' W 074°05'11 1.0
2014-Nov-12 23:33N 40°37' W 074°03'6 6.0
2014-Nov-12 22:33N 40°31' W 074°04'1111.2
2014-Nov-12 21:34N 40°42' W 074°00'4 4.2
2014-Nov-12 20:32N 40°46' W 074°01'0 0.0
2014-Nov-12 19:33N 40°46' W 074°01'0 0.0
2014-Nov-12 18:33N 40°46' W 074°01'0 0.0
2014-Nov-12 17:33N 40°46' W 074°01'0 0.0
2014-Nov-12 16:33N 40°46' W 074°01'0 0.0
2014-Nov-12 15:33N 40°46' W 074°01'0 0.0
2014-Nov-12 14:33N 40°46' W 074°01'9 9.2
2014-Nov-12 13:33N 40°37' W 074°03'1 0.8
2014-Nov-12 12:34N 40°38' W 074°03'1212.1
2014-Nov-12 11:33N 40°26' W 074°05'0 0.1
2014-Nov-12 10:32N 40°26' W 074°05'10 0.9
2014-Nov-11 23:33N 40°36' W 074°03'  

Dump ship's entire track history